Flag for Germany Weather past 2 weeks in Ilmenau, Thuringia, Germany

Now
57 °F

Scattered clouds.


Feels Like: 57 °F
Forecast: 40 / 54 °F
Wind: 5 mph from Northwest

Location: Erfurt-Bindersleben

Current Time: Sep 23, 2014 at 4:36:44 PM

Latest Report: Sep 23, 2014 at 4:20 PM


Visibility: N/A

Pressure: 30.12 "Hg

Humidity: 55%

Dew point: 41 °F

Location of IlmenauLocation

Historic Weather in Ilmenau — Graph

°F

Ilmenau temperature yesterday

Maximum temperature yesterday: 54 °F (at 12:50 PM)
Minimum temperature yesterday: 46 °F (at 1:20 PM)
Average temperature yesterday: 50 °F

Past Weeks' High & Low Weather Summary

 TemperatureHumidityPressure
High73 °F (Sep 16, 2:50 PM)100% (Sep 11, 4:20 AM)30.18 "Hg (Sep 11, 4:20 AM)
Low46 °F (Sep 22, 1:20 PM)50% (Sep 16, 4:20 PM)29.89 "Hg (Sep 21, 3:20 PM)
Average59 °F86%30.03 "Hg
* Reported Sep 8 3:20 PM — Sep 23 3:20 PM, Ilmenau, Weather by CustomWeather, © 2014

Note: Actual official high and low records may vary slightly from our data, if they occured in-between our weather recording intervals... More about our weather records

Advertising

Ilmenau weather history for previous 24 hours

 ConditionsComfort  
Time TempWeatherWind HumidityBarometerVisibility
3:20 PM
Sep 23
57 °FScattered clouds.9 mph51%30.12 "HgN/A
2:50 PM55 °FScattered clouds.7 mph59%30.12 "HgN/A
2:20 PM55 °FScattered clouds.8 mph59%30.15 "HgN/A
1:50 PM54 °FScattered clouds.9 mph63%30.15 "HgN/A
1:20 PM54 °FScattered clouds.12 mph58%30.15 "HgN/A
12:50 PM55 °FScattered clouds.13 mph63%30.15 "HgN/A
12:20 PM54 °FScattered clouds.13 mph58%30.15 "HgN/A
11:50 AM52 °FScattered clouds.10 mph67%30.15 "HgN/A
11:20 AM52 °FScattered clouds.10 mph67%30.15 "HgN/A
10:50 AM52 °FPassing clouds.12 mph67%30.15 "HgN/A
10:20 AM52 °FPassing clouds.12 mph72%30.15 "HgN/A
9:50 AM50 °FPassing clouds.12 mph76%30.15 "HgN/A
9:20 AM50 °FPassing clouds.9 mph82%30.12 "HgN/A
8:50 AM48 °FSunny.8 mph87%30.12 "Hg10 mi
8:20 AM48 °FSunny.7 mph87%30.12 "Hg10 mi
7:50 AM46 °FPassing clouds.8 mph93%30.12 "HgN/A
7:20 AM46 °FPassing clouds.8 mph87%30.12 "HgN/A
6:50 AM46 °FPassing clouds.9 mph93%30.12 "HgN/A
6:20 AM46 °FPassing clouds.9 mph87%30.09 "HgN/A
5:50 AM48 °FPassing clouds.8 mph87%30.09 "HgN/A
5:20 AM48 °FPassing clouds.8 mph87%30.09 "HgN/A
4:50 AM48 °FPassing clouds.8 mph87%30.09 "HgN/A
4:20 AM50 °FPassing clouds.13 mph82%30.09 "HgN/A
3:50 AM50 °FPassing clouds.14 mph82%30.07 "HgN/A
3:20 AM50 °FPassing clouds.15 mph76%30.07 "HgN/A
2:50 AM50 °FPassing clouds.16 mph76%30.07 "HgN/A
2:20 AM50 °FClear.16 mph76%30.07 "Hg10 mi
1:50 AM50 °FClear.14 mph76%30.07 "Hg10 mi
1:20 AM50 °FClear.15 mph76%30.07 "Hg10 mi
12:50 AM50 °FPassing clouds.16 mph76%30.07 "HgN/A
12:20 AM50 °FClear.15 mph76%30.07 "Hg10 mi
11:50 PM
Sep 22
50 °FClear.15 mph76%30.07 "Hg10 mi
11:20 PM50 °FClear.16 mph76%30.04 "Hg10 mi
10:50 PM50 °FPassing clouds.16 mph76%30.04 "HgN/A
10:20 PM50 °FPassing clouds.17 mph76%30.04 "HgN/A
9:50 PM52 °FPartly cloudy.15 mph72%30.04 "HgN/A
9:20 PM50 °FPassing clouds.13 mph82%30.04 "HgN/A
8:50 PM50 °FPartly cloudy.10 mph82%30.04 "HgN/A
8:20 PM50 °FLight rain. Passing clouds.9 mph82%30.04 "HgN/A
7:50 PM50 °FLight rain. Partly sunny.10 mph82%30.01 "HgN/A
7:20 PM50 °FLight rain. Partly sunny.13 mph82%30.01 "HgN/A
6:50 PM50 °FLight rain. Partly sunny.14 mph76%30.01 "HgN/A
6:20 PM50 °FBroken clouds.15 mph76%30.01 "HgN/A
5:50 PM52 °FScattered clouds.14 mph72%29.98 "HgN/A
5:20 PM52 °FPassing clouds.17 mph72%29.98 "HgN/A
4:50 PM52 °FPassing clouds.15 mph72%29.98 "HgN/A
4:20 PM52 °FPassing clouds.16 mph72%29.98 "HgN/A
Weather by CustomWeather, © 2014

See weather overviewHow to use our weather pages